DELTA 1 DEB, 2223

Orbit data source: Space-Track

DELTA 1 DEB, 2223 is space debris in SSO originally from a launch on Mon, 28 Feb 1966 UTC launched from the Air Force Eastern Test Range (AFETR). Debris objects in space refer to the collection of defunct objects orbiting the Earth. Examples of debris include non-operational satellites, rocket bodies, and fragments generated from explosions, collisions, or faulty payload assembly.

Loading next visibility...
DELTA 1 DEB details
Identifier
2223, 1966-016C
Orbit
SSO
Last TLE update2 days ago
Origin
Flag of USGSFC (US)
ManufacturerUnknown
MissionSpacecraft
Bus & MotorUnknown
Mass1 kg wet, 1 kg dry
Launch date (UTC)
1966-02-28 (59 years ago)
Launch vehicleUnknown
Launch site
Air Force Eastern Test Range (AFETR)
Object type
Payload
Rocket body
Debris
Shape & HBRCyl + 1 Cable, 3.5 m
Radar Cross Section3.500 m², Small (<0.1 m²)

Expand to show TLE details & history

TLE from 2 days ago
0 DELTA 1 DEB
1 02223U 66016C   24354.06768465 -.00000009  00000-0  13504-3 0  9994
2 02223 100.7997  29.6749 0093097 299.0430  87.9105 12.87742864756799
Epoch: 2024-12-19T01:37Z
Definitive object data (Epoch: 2024-12-19T01:37:27.953Z)
Latitude27.52074°
Longitude-88.51979°
Altitude1,311.705 km
Speed7.204 km/s
True Right ascension01h 35m 59s
True Declination27° 23' 25"
Sunlit
Object was in daylight at TLE epoch
Visualization TLE readout
Latitude5.58564°
Longitude-81.50195°
Altitude1,289.903 km
Speed7.222 km/s
Apparent Right ascension01h 20m 40s
Apparent Declination-15° 17' 10"
Sunlit
Object is in daylight
Visualization observer readout
Local Sidereal Time12:12:29
Azimuth324.022° NNW
Elevation-61.224°
Doppler factor1
Orbital elements
Apogee altitude1,379.493 km
Perigee altitude1,236.383 km
Semi-major axis7,686.075 km
Eccentricity0.0093097
Inclination100.7997°
RAAN29.6749°
Arg. of periapsis299.043°
True anomaly88.97699°
Mean anomaly87.9105°
Eccentric anomaly88.44371°
Mean motion3.22097 °/min
BSTAR0.00013504
Orbital period111.77 mins
Loading maneuver chart data...
Loading historical data...
Loading historical data...
Loading historical data...
Loading historical data...
Loading historical data...
Loading historical data...
Loading historical data...
Other satellites on launch #16 in the year 1966 (1966-02-28 UTC)

DELTA 1 DEB Visibility forecast

Observer location: undefined°, undefined

Span
Click to sort rows by Start time (UTC) header in descending order
Start Az.
Max El. time (UTC)
Max El. Az.
Max El.
End time (UTC)
End Az.
8 mins2024-12-21 13:49:34.175Z57.741° ENE2024-12-21 13:53:34.175Z90.624° ESE16.647°2024-12-21 13:57:34.175Z123.464° SE
14 mins2024-12-21 15:37:34.175Z15.805° NNE2024-12-21 15:44:34.175Z216.87° SW44.924°2024-12-21 15:51:34.175Z199.185° SSW
8 mins2024-12-21 17:29:34.175Z338.411° N2024-12-21 17:33:34.175Z303.156° NW18.979°2024-12-21 17:37:34.175Z269.788° W
8 mins2024-12-22 00:32:34.175Z81.495° E2024-12-22 00:35:34.175Z55.332° ENE17.617°2024-12-22 00:40:34.175Z14.389° NNE
14 mins2024-12-22 02:18:34.175Z158.365° S2024-12-22 02:24:34.175Z90.991° ESE44.856°2024-12-22 02:32:34.175Z345.222° N
7 mins2024-12-22 04:12:34.175Z243.47° WSW2024-12-22 04:15:34.175Z270.381° WNW17.1°2024-12-22 04:19:34.175Z304.028° NW
|